User: anonymous   Login
Location: Unspecified
(0.0000°N, 0.0000°E)
Time: 10:34:41
(UTC+00:00)
Language:

SBIRS GEO 4 (USA 282) - Orbit

View from above orbital plane
View from above orbital plane
View from above satellite
View from above satellite

Ground track
Ground track

The orbit data is extracted from the following two-line orbital elements,

1 43162U 18009A   24104.77765958  .00000117  00000-0  00000-0 0  9998
2 43162   2.4380 333.3285 0001806  39.0090 310.6445  1.00272426 22874
Epoch (UTC): 13 April 2024 18:39:49
Eccentricity: 0.0001806
inclination: 2.4380°
perigee height: 35778 km
apogee height: 35793 km
right ascension of ascending node: 333.3285°
argument of perigee: 39.0090°
revolutions per day: 1.00272426
mean anomaly at epoch: 310.6445°
orbit number at epoch: 2287

The dashed part of the orbit path shows where the satellite is in the earth's shadow,  

DLR